Regional Weather Roundup
Issued by NWS

Home | Current Version | Previous Version | Graphics & Text | Print | Product List | Glossary On
Versions: 1 2 3 4 5 6 7 8 9 10 11 12 13 14 15 16 17 18 19 20 21 22 23 24 25 26 27 28 29 30 31 32 33 34 35 36 37 38 39 40 41 42 43 44 45 46 47 48 49 50
000
ASUS43 KLMK 050910
RWRKY
KENTUCKY REGIONAL WEATHER ROUNDUP
NATIONAL WEATHER SERVICE LOUISVILLE KY
400 AM EST THU MAR 05 2015

NOTE "FAIR" INDICATES FEW OR NO CLOUDS BELOW 12,000 FEET
WITH NO SIGNIFICANT WEATHER AND/OR OBSTRUCTIONS TO VISIBILITY.

KYZ001>023-026-027-061>063-070>075-051000-
WESTERN AND SOUTH CENTRAL KENTUCKY

CITY           SKY/WX    TMP DP  RH WIND       PRES   REMARKS
PADUCAH        CLOUDY    20   9  62 N14       30.32R WCI   7
HENDERSON      CLOUDY    19   7  58 N10       30.33R WCI   8
OWENSBORO      LGT SNOW  18  16  92 N8        30.29F FOG     WCI   8
HOPKINSVILLE   LGT SNOW  18  15  89 N8        30.25R FOG     WCI   8
BOWLING GREEN  LGT SNOW  22  18  85 N7G17     30.21F VSB 1   WCI  13
GLASGOW        LGT SNOW  23  22  96 N13G18    30.17F WCI  11
$$

KYZ024-025-028>034-038-045-046-053-051000-
NORTH CENTRAL KENTUCKY

CITY           SKY/WX    TMP DP  RH WIND       PRES   REMARKS
LOUISVILLE/SDF LGT SNOW  20  16  84 N16       30.26S VSB 3/4 WCI   6
LOUISVILLE/LOU LGT SNOW  20  16  84 N12G18    30.26F VSB 1   WCI   8
FORT KNOX      LGT SNOW  19  16  87 N12       30.23S VSB 1   WCI   7
$$

KYZ035>037-039>044-047>052-055>060-089>105-051000-
NORTHEAST KENTUCKY

CITY           SKY/WX    TMP DP  RH WIND       PRES   REMARKS
LEXINGTON      CLOUDY    20  17  88 N16       30.18F FOG     WCI   6
COVINGTON      LGT SNOW  18  10  73 N22G30    30.24S VSB 1   WCI   0
FRANKFORT      LGT SNOW  20  16  84 N10       30.21F VSB 3/4 WCI   9
$$

KYZ054-064>069-076>088-106>120-051000-
SOUTHEAST KENTUCKY

CITY           SKY/WX    TMP DP  RH WIND       PRES   REMARKS
JACKSON        LGT SNOW  29  26  89 VRB5      30.06S FOG     WCI  24
LONDON         FRZ RAIN  31  26  82 N14       30.08R WCI  21
SOMERSET       LGT SNOW  27  27 100 NE10G18   30.13R WCI  17
MIDDLESBORO    LGT SNOW  34  32  92 N7        30.05R WCI  28
MONTICELLO     LGT SNOW  27  27 100 N8G20     30.13F FOG     WCI  18
$$



USA.gov is the U.S. government's official web portal to all federal, state and local government web resources and services.